Flag for Germany Weather past 2 weeks in Potsdam, Brandenburg, Germany

Now
55 °F

Overcast.


Feels Like: 53 °F
Forecast: 39 / 49 °F
Wind: 7 mph from Southwest

Location: Potsdam


UV Index: 0 (Low)

Visibility: 25 mi


Pressure: 30.03 "Hg

Humidity: 34%

Dew point: 27 °F

Location of PotsdamLocation

Historic Weather in Potsdam

°F

Potsdam temperature yesterday

Maximum temperature yesterday: 57 °F (at 1:00 PM)
Minimum temperature yesterday: 36 °F (at 7:00 AM)
Average temperature yesterday: 47 °F

Past Weeks' High & Low Weather Summary

 TemperatureHumidityPressure
High72 °F (Apr 3, 4:00 PM)99% (Apr 12, 4:00 AM)30.46 "Hg (Apr 12, 4:00 AM)
Low34 °F (Apr 16, 6:00 AM)27% (Apr 16, 3:00 PM)29.65 "Hg (Apr 3, 6:00 AM)
Average51 °F71%30.00 "Hg
* Reported Apr 2 6:00 PM — Apr 17 6:00 PM, Potsdam, Weather by CustomWeather, © 2014

Note: Actual official high and low records may vary slightly from our data, if they occured in-between our weather recording intervals... More about our weather records

Advertising

Historic Weather Conditions — Data for Previous 24 hours

 ConditionsComfort  
Time TempWeatherWind HumidityBarometerVisibility
6:00 PM
Apr 17
55 °FOvercast.7 mph34%30.03 "Hg25 mi
5:00 PM55 °FOvercast.6 mph36%30.06 "Hg25 mi
4:00 PM55 °FOvercast.6 mph32%30.10 "Hg25 mi
3:00 PM56 °FOvercast.6 mph30%30.15 "Hg25 mi
2:00 PM57 °FOvercast.5 mph32%30.19 "Hg22 mi
1:00 PM57 °FPartly sunny.5 mph33%30.23 "Hg22 mi
12:00 PM56 °FPartly sunny.8 mph33%30.27 "Hg22 mi
11:00 AM53 °FScattered clouds.5 mph37%30.30 "Hg25 mi
10:00 AM52 °FScattered clouds.5 mph41%30.32 "Hg25 mi
9:00 AM46 °FPassing clouds.3 mph58%30.33 "Hg25 mi
8:00 AM39 °FPassing clouds.5 mph70%30.34 "Hg25 mi
7:00 AM36 °FPassing clouds.5 mph74%30.35 "Hg19 mi
6:00 AM37 °FPassing clouds.5 mph68%30.36 "Hg19 mi
5:00 AM38 °FPassing clouds.6 mph67%30.36 "Hg31 mi
4:00 AM38 °FPassing clouds.5 mph68%30.38 "Hg31 mi
3:00 AM38 °FPassing clouds.5 mph68%30.39 "Hg31 mi
2:00 AM40 °FClear.6 mph63%30.40 "Hg31 mi
1:00 AM41 °FClear.6 mph64%30.41 "Hg31 mi
Weather by CustomWeather, © 2014

See weather overview